Flag for U.S.A. Weather past 2 weeks in Sacramento, California, U.S.A.

Now
90 °F

Sunny.


Feels Like: 88 °F
Forecast: 59 / 92 °F
Wind: 3 mph from North

Location: Sacramento Executive Airport

Current Time: Aug 27, 2014 at 2:35:07 PM

Latest Report: Aug 27, 2014 at 1:53 PM


Visibility: 10 mi

Pressure: 29.99 "Hg

Humidity: 28%

Dew point: 53 °F

Location of SacramentoLocation

Historic Weather in Sacramento — Graph

°F

Sacramento temperature yesterday

Maximum temperature yesterday: 89 °F (at 4:53 PM)
Minimum temperature yesterday: 59 °F (at 6:53 AM)
Average temperature yesterday: 73 °F

Past Weeks' High & Low Weather Summary

 TemperatureHumidityPressure
High94 °F (Aug 16, 3:53 PM)90% (Aug 18, 3:53 AM)30.05 "Hg (Aug 18, 3:53 AM)
Low57 °F (Aug 17, 6:53 AM)13% (Aug 17, 4:53 PM)29.71 "Hg (Aug 18, 6:53 PM)
Average72 °F60%29.87 "Hg
* Reported Aug 13 8:53 AM — Aug 27 12:53 PM, Sacramento, Weather by CustomWeather, © 2014

Note: Actual official high and low records may vary slightly from our data, if they occured in-between our weather recording intervals... More about our weather records

Advertising

Sacramento weather history for previous 24 hours

 ConditionsComfort  
Time TempWeatherWind HumidityBarometerVisibility
12:53 PM
Aug 27
86 °FSunny.No wind36%30.01 "Hg10 mi
11:53 AM82 °FSunny.No wind44%30.03 "Hg10 mi
10:53 AM78 °FSunny.3 mph50%30.05 "Hg10 mi
9:53 AM73 °FSunny.No wind59%30.05 "Hg10 mi
8:53 AM68 °FSunny.9 mph70%30.04 "Hg10 mi
7:53 AM65 °FSunny.7 mph76%30.03 "Hg10 mi
6:53 AM63 °FClear.3 mph78%30.02 "Hg10 mi
5:53 AM64 °FClear.6 mph75%29.99 "Hg10 mi
4:53 AM65 °FClear.5 mph73%29.98 "Hg10 mi
3:53 AM66 °FClear.6 mph68%29.97 "Hg10 mi
2:53 AM67 °FClear.7 mph66%29.96 "Hg10 mi
1:53 AM67 °FClear.5 mph66%29.94 "Hg10 mi
12:53 AM68 °FClear.6 mph61%29.94 "Hg10 mi
11:53 PM
Aug 26
69 °FClear.6 mph59%29.93 "Hg10 mi
10:53 PM70 °FClear.8 mph57%29.92 "Hg10 mi
9:53 PM71 °FClear.7 mph55%29.91 "Hg10 mi
8:53 PM74 °FClear.7 mph52%29.90 "Hg10 mi
7:53 PM78 °FSunny.8 mph48%29.88 "Hg10 mi
6:53 PM84 °FSunny.10 mph37%29.87 "Hg10 mi
5:53 PM88 °FSunny.9 mph31%29.86 "Hg10 mi
4:53 PM89 °FSunny.8 mph30%29.87 "Hg10 mi
3:53 PM88 °FSunny.3 mph31%29.88 "Hg10 mi
2:53 PM87 °FSunny.5 mph32%29.90 "Hg10 mi
Weather by CustomWeather, © 2014

See weather overviewHow to use our weather pages